Погода в Льгове

Россия / Рязанская область     54°35′24″N   39°57′03″E
темп.,
°C
ветер,
м/с
пор.,
м/с
влажн.,
%
обл.,
%
осадки,
мм/ч
давл.,
гПа
погр.,
м
20 января, ср
ср2000:00−16з2396100 0.2 101769
03:00−16зсз3596100 0.3 1018142
06:00−15зсз369698 0.2 1017155
09:00−15зсз369699 0.3 1019166
12:00−12зсз469483 0.1 1019256
15:00−12з479488 0.1 1019245
18:00−11зсз599588 0.1 1020239
21:00−13зсз5109479 0.1 1022211
21 января, чт
чт2100:00−15з479541 0.0 1023131
03:00−17з479420 0.0 1023104
06:00−17зюз368980 0.0 102498
09:00−16юз498990 0.0 1023215
12:00−13ююз51087100 0.0 1021297
15:00−12ююз61194100 0.4 1018374
18:00−11юз61194100 1.5 1016584
21:00−9юз3894100 1.8 1016298
22 января, пт
пт2200:00−9зюз2595100 0.1 1015127
03:00−8юз2395100 0.1 101655
06:00−7ю2297100 0.1 101545
09:00−3ю359799 0.3 1015176
12:00+1юз5998100 0.0 1015352
15:00+1юз5995100 0.0 1014494
18:000ююз4895100 0.0 1014379
21:000ююз4894100 0.0 1014449
23 января, сб
сб2300:00+1ю51099100 0.1 1013306
03:00+1ююз612100100 0.4 1013372
06:00+1юз61197100 0.2 1013418
09:00+1ююз61197100 0.2 1014487
12:00+1юз51199100 0.0 1014518
15:00+1юз61199100 0.0 1015526
18:00+1юз41098100 0.0 1015360
21:00+1ююз3798100 0.0 1016200
24 января, вс
вс2400:00+1ю4898100 0.0 1016271
03:00+1ю4998100 0.0 1016281
06:00+1ю4898100 0.0 1016249
09:00+1ю4998100 0.0 1017319
12:00+1ю51099100 0.1 1017336
15:00+1ю611100100 0.1 1016366
18:00+1ю61298100 0.0 1017365
21:00+1ю71397100 0.2 1017320